Regional Weather Roundup
Issued by NWS

Home | Current Version | Previous Version | Text Only | Print | Product List | Glossary On
Versions: 1 2 3 4 5 6 7 8 9 10 11 12 13 14 15 16 17 18 19 20 21 22 23 24 25 26 27 28 29 30 31 32 33 34 35 36 37 38 39 40 41 42 43 44 45 46 47 48 49 50
860
ASUS44 KLIX 191001
RWRLA
LOUISIANA WEATHER ROUNDUP
NATIONAL WEATHER SERVICE NEW ORLEANS LA
500 AM CDT SAT APR 19 2014

NOTE: "FAIR" INDICATES FEW OR NO CLOUDS BELOW 12,000 FEET WITH NO
      SIGNIFICANT WEATHER AND/OR OBSTRUCTIONS TO VISIBILITY.
      SKY/WX - SKY CONDITION AND SIGNIFICANT WEATHER.
      TMP - AIR TEMPERATURE.    DP   - DEWPOINT TEMPERATURE.
      RH  - RELATIVE HUMIDITY.  PRES - PRESSURE.
      HX  - HEAT INDEX.         WCI  - WIND CHILL INDEX.

*  THESE STATIONS ARE NOT NWS OR FAA STATIONS AND ARE NOT UNDER
   NWS QUALITY CONTROL.

LAZ040-048-061>063-065-066-069-191100-
SOUTHEAST LOUISIANA

CITY           SKY/WX    TMP DP  RH WIND       PRES   REMARKS
N.O. AUDUBON     N/A     59  53  82 MISG        N/A
N.O. INTL ARPT PTCLDY    57  53  86 N8        30.12R
N.O. LAKEFRONT CLEAR     59  53  80 N12       30.12R
N.O. DOWNTOWN* FAIR      57  48  72 N3        30.12R
SLIDELL        CLEAR     54  51  90 N3        30.09S
BATON ROUGE    CLEAR     55  52  89 CALM      30.14S
BOOTHVILLE     PTCLDY    59  55  87 N5        30.10R
BELLE CHASSE   CLEAR     54  50  86 CALM      30.11R
BOGALUSA*        N/A     53  49  89 N3        30.12S
GALLIANO*      NOT AVBL
NEW ROADS*     NOT AVBL
GONZALES*      FAIR      55  54  98 CALM      30.13S
HAMMOND*       NOT AVBL
HOUMA*         NOT AVBL
PORT FOURCHON* MOSUNNY   59  55  88 N10       30.14R

$$

LAZ041-044-053-054-191100-
SOUTHWEST LOUISIANA

CITY           SKY/WX    TMP DP  RH WIND       PRES   REMARKS
LAKE CHARLES   CLEAR     57  55  93 NE6       30.12S
LAFAYETTE      CLEAR     57  56  96 CALM      30.15R
PATTERSON      CLEAR     55  52  88 CALM      30.18R
SALT POINT       N/A     60  56  86 CALM      30.13R
NEW IBERIA     CLEAR     58  54  86 E6        30.15R
CHENAULT AIRPK NOT AVBL

$$

LAZ027-028-191100-
CENTRAL LOUISIANA

CITY           SKY/WX    TMP DP  RH WIND       PRES   REMARKS
FORT POLK      CLEAR     54  52  93 E5        30.14R
ALEXANDRIA INT CLEAR     56  40  55 CALM      30.14R
ALEXANDRIA     FOG       51  49  92 CALM      30.15S VSB 3/4

$$

LAZ001-002-191100-
NORTHWEST LOUISIANA

CITY           SKY/WX    TMP DP  RH WIND       PRES   REMARKS
SHREVEPORT     PTCLDY    53  50  89 CALM      30.14S
BARKSDALE AFB  CLEAR     53  53 100 CALM      30.15R
DTN SHREVEPORT CLEAR     52  50  93 CALM      30.15S FOG

$$

LAZ014-016-191100-
NORTHEAST LOUISIANA

CITY           SKY/WX    TMP DP  RH WIND       PRES   REMARKS
MONROE         FOG       51  50  96 CALM      30.17S VSB 3/4
TALLULAH       CLEAR     56  54  93 CALM      30.15S

$$




USA.gov is the U.S. government's official web portal to all federal, state and local government web resources and services.